• In Belarus
  • List of Countries
  • For 7 days
  • Water Temperature
  • Satellite Maps
  • Weather Map
  • Weather Widgets
  • user-avatar
    Login

    Hourly Weather Cardrona

    Today, 25 February, Sunday

    Time Temperature Precipitation Wind Pressure Humidity
    00:00 +10°C° 0.2 mm 4 mps 675 mmHg 82%
    01:00 +10°C° 0.2 mm 4 mps 675 mmHg 83%
    02:00 +9°C° 0.2 mm 5 mps 674 mmHg 84%
    03:00 +9°C° 0.2 mm 5 mps 674 mmHg 84%
    04:00 +9°C° 0.2 mm 5 mps 673 mmHg 84%
    05:00 +10°C° 0 mm 4 mps 672 mmHg 84%
    06:00 +10°C° 0.2 mm 5 mps 672 mmHg 83%
    07:00 +11°C° 0.2 mm 6 mps 671 mmHg 82%
    08:00 +12°C° 0.2 mm 7 mps 671 mmHg 82%
    09:00 +12°C° 0.1 mm 8 mps 670 mmHg 79%
    10:00 +13°C° 0.1 mm 9 mps 669 mmHg 77%
    11:00 +14°C° 0.1 mm 10 mps 669 mmHg 74%
    12:00 +14°C° 1 mm 10 mps 669 mmHg 74%
    13:00 +15°C° 1 mm 9 mps 668 mmHg 75%
    14:00 +15°C° 1 mm 9 mps 668 mmHg 75%
    15:00 +14°C° 3.5 mm 7 mps 668 mmHg 79%
    16:00 +14°C° 3.5 mm 5 mps 668 mmHg 84%
    17:00 +13°C° 3.5 mm 3 mps 668 mmHg 88%
    18:00 +12°C° 1.2 mm 3 mps 669 mmHg 89%
    19:00 +12°C° 1.2 mm 3 mps 669 mmHg 90%
    20:00 +12°C° 1.2 mm 2 mps 670 mmHg 92%
    21:00 +10°C° 0.1 mm 2 mps 670 mmHg 91%
    22:00 +9°C° 0.1 mm 2 mps 671 mmHg 91%
    23:00 +8°C° 0.1 mm 2 mps 671 mmHg 90%

    Tomorrow, 26 February, Monday

    Time Temperature Precipitation Wind Pressure Humidity
    00:00 +7°C° 0 mm 2 mps 672 mmHg 90%
    01:00 +6°C° 0 mm 2 mps 673 mmHg 90%
    02:00 +5°C° 0 mm 2 mps 673 mmHg 90%
    03:00 +6°C° 0 mm 1 mps 674 mmHg 89%
    04:00 +6°C° 0 mm 1 mps 675 mmHg 88%
    05:00 +6°C° 0 mm 1 mps 675 mmHg 87%
    06:00 +6°C° 0 mm 2 mps 676 mmHg 84%
    07:00 +7°C° 0 mm 2 mps 677 mmHg 81%
    08:00 +8°C° 0 mm 2 mps 678 mmHg 78%
    09:00 +9°C° 0 mm 2 mps 679 mmHg 71%
    10:00 +12°C° 0 mm 2 mps 680 mmHg 64%
    11:00 +13°C° 0 mm 2 mps 681 mmHg 57%
    12:00 +14°C° 0 mm 2 mps 681 mmHg 54%
    13:00 +15°C° 0 mm 2 mps 681 mmHg 52%
    14:00 +15°C° 0 mm 2 mps 682 mmHg 49%
    15:00 +15°C° 0 mm 2 mps 682 mmHg 52%
    16:00 +15°C° 0 mm 2 mps 682 mmHg 54%
    17:00 +14°C° 0 mm 2 mps 682 mmHg 57%
    18:00 +12°C° 0 mm 2 mps 682 mmHg 65%
    19:00 +10°C° 0 mm 1 mps 682 mmHg 74%
    20:00 +8°C° 0 mm 1 mps 683 mmHg 82%
    21:00 +8°C° 0 mm 1 mps 683 mmHg 84%
    22:00 +8°C° 0 mm 1 mps 683 mmHg 85%
    23:00 +7°C° 0 mm 1 mps 683 mmHg 86%

    Day after tomorrow, 27 February, Tuesday

    Time Temperature Precipitation Wind Pressure Humidity
    00:00 +7°C° 0 mm 1 mps 683 mmHg 87%
    01:00 +7°C° 0 mm 1 mps 683 mmHg 88%
    02:00 +7°C° 0 mm 1 mps 683 mmHg 89%
    03:00 +7°C° 0 mm 1 mps 683 mmHg 89%
    04:00 +7°C° 0 mm 1 mps 683 mmHg 89%
    05:00 +7°C° 0 mm 1 mps 683 mmHg 89%
    06:00 +8°C° 0 mm 1 mps 684 mmHg 83%
    07:00 +10°C° 0 mm 1 mps 684 mmHg 76%
    08:00 +12°C° 0 mm 1 mps 685 mmHg 70%
    09:00 +13°C° 0 mm 1 mps 685 mmHg 65%
    10:00 +15°C° 0 mm 1 mps 686 mmHg 59%
    11:00 +18°C° 0 mm 1 mps 686 mmHg 54%
    12:00 +18°C° 0 mm 1 mps 686 mmHg 52%
    13:00 +19°C° 0 mm 1 mps 685 mmHg 50%
    14:00 +19°C° 0 mm 1 mps 685 mmHg 49%
    15:00 +18°C° 0 mm 1 mps 685 mmHg 52%
    16:00 +18°C° 0 mm 1 mps 685 mmHg 56%
    17:00 +17°C° 0 mm 2 mps 685 mmHg 60%
    18:00 +15°C° 0 mm 1 mps 684 mmHg 67%
    19:00 +13°C° 0 mm 1 mps 684 mmHg 74%
    20:00 +11°C° 0 mm 1 mps 684 mmHg 81%
    21:00 +11°C° 0 mm 1 mps 684 mmHg 83%
    22:00 +11°C° 0 mm 1 mps 684 mmHg 85%
    23:00 +10°C° 0 mm 1 mps 684 mmHg 87%

    28 February, Wednesday

    Time Temperature Precipitation Wind Pressure Humidity
    00:00 +10°C° 0 mm 1 mps 683 mmHg 88%
    01:00 +10°C° 0 mm 1 mps 683 mmHg 88%
    02:00 +10°C° 0 mm 1 mps 683 mmHg 89%
    03:00 +9°C° 0 mm 1 mps 683 mmHg 89%
    04:00 +9°C° 0 mm 1 mps 683 mmHg 89%
    05:00 +9°C° 0 mm 1 mps 682 mmHg 89%
    06:00 +11°C° 0 mm 1 mps 683 mmHg 82%
    07:00 +12°C° 0 mm 1 mps 683 mmHg 76%
    08:00 +14°C° 0 mm 1 mps 684 mmHg 70%
    09:00 +16°C° 0 mm 1 mps 684 mmHg 63%
    10:00 +18°C° 0 mm 1 mps 684 mmHg 56%
    11:00 +20°C° 0 mm 1 mps 684 mmHg 49%
    12:00 +21°C° 0 mm 1 mps 684 mmHg 47%
    13:00 +21°C° 0 mm 1 mps 683 mmHg 45%
    14:00 +22°C° 0 mm 1 mps 683 mmHg 43%
    15:00 +21°C° 0 mm 1 mps 683 mmHg 47%
    16:00 +21°C° 0 mm 1 mps 682 mmHg 51%
    17:00 +20°C° 0 mm 1 mps 682 mmHg 55%
    18:00 +18°C° 0 mm 1 mps 682 mmHg 63%
    19:00 +14°C° 0 mm 1 mps 681 mmHg 72%
    20:00 +12°C° 0 mm 1 mps 681 mmHg 81%
    21:00 +12°C° 0 mm 1 mps 681 mmHg 82%
    22:00 +11°C° 0 mm 1 mps 680 mmHg 84%
    23:00 +11°C° 0 mm 1 mps 680 mmHg 86%

    1 March, Thursday

    Time Temperature Precipitation Wind Pressure Humidity
    00:00 +12°C° 0.1 mm 1 mps 680 mmHg 85%
    01:00 +12°C° 0.1 mm 1 mps 680 mmHg 85%
    02:00 +12°C° 0.1 mm 1 mps 679 mmHg 85%
    03:00 +12°C° 0.1 mm 1 mps 679 mmHg 85%
    04:00 +13°C° 0.1 mm 1 mps 678 mmHg 86%
    05:00 +13°C° 0.1 mm 1 mps 678 mmHg 86%
    06:00 +13°C° 0.5 mm 1 mps 678 mmHg 87%
    07:00 +13°C° 0.5 mm 1 mps 677 mmHg 87%
    08:00 +14°C° 0.5 mm 2 mps 677 mmHg 88%
    09:00 +15°C° 0.5 mm 2 mps 677 mmHg 85%
    10:00 +15°C° 0.5 mm 2 mps 677 mmHg 83%
    11:00 +16°C° 0.5 mm 2 mps 676 mmHg 80%
    12:00 +16°C° 0.6 mm 2 mps 675 mmHg 81%
    13:00 +16°C° 0.6 mm 2 mps 675 mmHg 82%
    14:00 +16°C° 0.6 mm 2 mps 674 mmHg 82%
    15:00 +16°C° 1.4 mm 2 mps 673 mmHg 86%
    16:00 +15°C° 1.4 mm 2 mps 673 mmHg 89%
    17:00 +15°C° 1.4 mm 2 mps 672 mmHg 93%
    18:00 +14°C° 1 mm 2 mps 672 mmHg 93%
    19:00 +14°C° 1 mm 2 mps 672 mmHg 94%
    20:00 +14°C° 1 mm 2 mps 671 mmHg 94%
    21:00 +14°C° 1.5 mm 2 mps 671 mmHg 94%
    22:00 +14°C° 1.5 mm 1 mps 671 mmHg 94%
    23:00 +14°C° 1.5 mm 1 mps 671 mmHg 95%

    2 March, Friday

    Time Temperature Precipitation Wind Pressure Humidity
    00:00 +14°C° 2.7 mm 1 mps 670 mmHg 95%
    01:00 +13°C° 2.7 mm 1 mps 670 mmHg 95%
    02:00 +12°C° 2.7 mm 0 mps 670 mmHg 95%
    03:00 +12°C° 1.3 mm 0 mps 670 mmHg 96%
    04:00 +12°C° 1.3 mm 0 mps 670 mmHg 96%
    05:00 +12°C° 1.3 mm 0 mps 670 mmHg 96%
    06:00 +14°C° 0.8 mm 1 mps 670 mmHg 93%
    07:00 +14°C° 0.8 mm 1 mps 671 mmHg 89%
    08:00 +15°C° 0.8 mm 1 mps 671 mmHg 86%
    09:00 +15°C° 1.8 mm 1 mps 671 mmHg 83%
    10:00 +16°C° 1.8 mm 1 mps 671 mmHg 79%
    11:00 +16°C° 1.8 mm 2 mps 671 mmHg 76%
    12:00 +16°C° 2.3 mm 2 mps 671 mmHg 79%
    13:00 +15°C° 2.3 mm 2 mps 671 mmHg 82%
    14:00 +14°C° 2.3 mm 2 mps 671 mmHg 85%
    15:00 +13°C° 1.5 mm 2 mps 671 mmHg 87%
    16:00 +13°C° 1.5 mm 2 mps 671 mmHg 89%
    17:00 +12°C° 1.5 mm 2 mps 671 mmHg 91%
    18:00 +12°C° 0.6 mm 2 mps 672 mmHg 92%
    19:00 +10°C° 0.6 mm 2 mps 672 mmHg 93%
    20:00 +10°C° 0.6 mm 2 mps 673 mmHg 94%
    21:00 +10°C° 0.1 mm 2 mps 673 mmHg 94%
    22:00 +10°C° 0.1 mm 2 mps 673 mmHg 94%
    23:00 +9°C° 0.1 mm 3 mps 673 mmHg 94%
    Show more